Stations météo

réclame
Mon MeteoGroup
Grünow, Allemagne (10289): Température de l'air & dewpoint: 17.09.2018 04:00:00 - 23.09.2018 04:00:00 (CEST)Grünow, Allemagne (10289): Température de l'air 5cm & Température de l'air -5cm: 17.09.2018 04:00:00 - 23.09.2018 04:00:00 (CEST)Grünow, Allemagne (10289): Température de l'air -20cm & Température de l'air -100cm: 17.09.2018 04:00:00 - 23.09.2018 04:00:00 (CEST)Grünow, Allemagne (10289): Vitesse du vent & gusts: 17.09.2018 04:00:00 - 23.09.2018 04:00:00 (CEST)Grünow, Allemagne (10289): Direction du vent: 17.09.2018 04:00:00 - 23.09.2018 04:00:00 (CEST)Grünow, Allemagne (10289): reduced air pressure: 17.09.2018 04:00:00 - 23.09.2018 04:00:00 (CEST)Grünow, Allemagne (10289): visibility: 17.09.2018 04:00:00 - 23.09.2018 04:00:00 (CEST)Grünow, Allemagne (10289): Ensoleillement: 17.09.2018 04:00:00 - 23.09.2018 04:00:00 (CEST)Grünow, Allemagne (10289): Quantités de précipitations: 17.09.2018 04:00:00 - 23.09.2018 04:00:00 (CEST)
Date & Time tt [°C] td [°C] tt 5cm [°C] tt -5cm [°C] tt -20cm [°C] tt -100cm [°C] ff [km/h] ff [knt] fx [km/h] fx [knt] dd ppp [hPa] vv [km] sd [min] rr [mm]
23.09.2018 04:00:00 9,7 7,4 8,2 12,1 15,9 17,4 16 9 26 14 WSW 1014,5 70 0 0,0
23.09.2018 03:00:00 10,8 7,7 10,3 12,6 16,0 17,4 17 9 31 17 WSW 1014,6 70 0 0,0
23.09.2018 02:00:00 10,9 7,9 10,3 12,7 16,2 17,4 18 10 29 16 SW 1014,9 70 0 0,0
23.09.2018 01:00:00 10,9 7,7 10,2 12,8 16,4 17,5 17 9 25 14 SW 1014,9 70 0 0,0
23.09.2018 00:00:00 11,2 7,7 10,4 13,0 16,5 17,5 13 7 23 12 SW 1015,0 70 0 0,0
22.09.2018 23:00:00 11,1 7,6 10,0 13,3 16,7 17,5 14 8 26 14 WSW 1015,1 70 0 0,0
22.09.2018 22:00:00 11,5 7,7 10,5 13,9 16,9 17,5 14 8 24 13 WSW 1015,4 70 0 0,0
22.09.2018 21:00:00 11,6 8,4 10,3 14,5 17,1 17,5 16 8 23 12 SW 1015,5 70 0 0,2
22.09.2018 20:00:00 11,8 6,7 10,3 15,4 17,2 17,5 7 4 29 16 WNW 1015,1 70 0 0,0
22.09.2018 19:00:00 13,2 6,6 13,1 16,6 17,3 17,5 26 14 43 23 NW 1015,0 70 0 0,0
22.09.2018 18:00:00 16,1 5,2 15,4 17,7 17,3 17,5 27 14 44 24 WSW 1014,6 70 0 0,0
22.09.2018 17:00:00 16,4 5,4 16,6 18,9 17,2 17,5 26 14 54 29 WSW 1015,0 63 10 0,0
22.09.2018 16:00:00 16,9 4,9 18,4 20,0 17,0 17,5 27 14 49 26 WSW 1015,0 41 43 0,0
22.09.2018 15:00:00 16,8 6,4 20,1 19,6 16,7 17,5 25 14 44 24 WSW 1015,2 54 31 0,0
22.09.2018 14:00:00 15,6 5,9 17,2 19,6 16,5 17,5 25 14 45 24 WSW 1015,5 66 38 0,0
22.09.2018 13:00:00 15,2 6,9 17,7 17,4 16,3 17,5 23 13 41 22 SW 1015,8 45 21 0,0
22.09.2018 12:00:00 14,1 7,7 16,0 16,7 16,1 17,5 27 14 42 23 W 1015,9 48 45 0,0
22.09.2018 11:00:00 13,4 8,6 15,2 14,6 16,1 17,5 24 13 40 22 WSW 1015,8 29 46 0,0
22.09.2018 10:00:00 12,0 8,0 12,8 13,1 16,1 17,5 23 12 37 20 WSW 1015,3 38 33 0,0
22.09.2018 09:00:00 11,2 7,9 11,9 11,9 16,3 17,5 21 11 34 18 WSW 1014,5 19 29 0,0
22.09.2018 08:00:00 10,1 7,1 9,0 11,4 16,5 17,5 24 13 38 20 WSW 1013,9 64 6 0,0
22.09.2018 07:00:00 9,7 6,6 8,4 11,1 16,7 17,5 23 13 36 20 WSW 1013,1 70 0 0,0
22.09.2018 06:00:00 9,6 6,2 8,1 11,4 16,9 17,5 20 11 41 22 WSW 1012,6 70 0 0,0
22.09.2018 05:00:00 9,9 6,0 8,4 11,6 17,2 17,5 23 13 40 21 SW 1012,4 70 0 0,0
22.09.2018 04:00:00 10,4 5,8 8,8 12,0 17,5 17,5 26 14 40 21 WSW 1011,9 70 0 0,0
22.09.2018 03:00:00 10,5 6,0 8,9 12,6 17,8 17,5 27 14 39 21 WSW 1011,3 70 0 0,0
22.09.2018 02:00:00 11,1 7,4 9,5 13,3 18,1 17,5 23 12 35 19 SW 1011,1 70 0 0,0
22.09.2018 01:00:00 11,4 8,1 10,0 13,9 18,4 17,5 18 10 32 17 SW 1010,8 70 0 0,0
22.09.2018 00:00:00 12,4 9,1 10,3 14,7 18,7 17,5 20 11 32 17 WSW 1010,2 70 0 0,0
21.09.2018 23:00:00 12,9 11,2 11,6 15,6 19,0 17,5 20 11 35 19 WSW 1009,6 53 0 0,0
21.09.2018 22:00:00 13,4 11,8 12,3 16,2 19,3 17,5 19 11 31 17 WSW 1008,6 55 0 0,0
21.09.2018 21:00:00 13,3 11,7 12,5 16,9 19,6 17,5 18 10 31 17 WSW 1007,2 70 0 0,1
21.09.2018 20:00:00 13,2 11,6 12,5 17,9 19,9 17,5 13 7 26 14 WSW 1006,5 39 0 0,4
21.09.2018 19:00:00 13,1 11,6 12,6 19,4 20,1 17,5 17 9 46 25 WSW 1006,5 9 0 1,4
21.09.2018 18:00:00 14,1 11,8 13,3 21,7 20,1 17,5 24 13 74 40 W 1006,1 35 0 0,4
21.09.2018 17:00:00 22,4 12,5 23,7 24,5 20,0 17,5 50 27 63 34 W 1002,8 1,3 0 0,0
21.09.2018 16:00:00 28,7 11,9 29,0 25,5 19,7 17,5 32 17 57 31 SSW 1001,0 22 16 0,0
21.09.2018 15:00:00 29,3 12,3 31,1 25,5 19,4 17,5 37 20 57 31 SSW 1001,8 25 33 0,0
21.09.2018 14:00:00 28,4 12,1 29,4 25,2 19,0 17,5 30 16 51 28 S 1002,7 19 34 0,0
21.09.2018 13:00:00 28,0 12,2 30,0 24,6 18,7 17,5 32 18 50 27 S 1003,7 8 57 0,0
21.09.2018 12:00:00 26,9 13,2 29,4 22,6 18,4 17,5 31 17 46 25 S 1005,0 9 59 0,0
21.09.2018 11:00:00 25,2 13,8 26,2 20,4 18,3 17,5 23 13 39 21 S 1006,0 18 57 0,0
21.09.2018 10:00:00 22,2 14,2 23,1 18,6 18,2 17,5 25 13 33 18 S 1006,7 23 20 0,0
21.09.2018 09:00:00 20,7 13,6 21,1 17,5 18,3 17,4 19 10 28 15 S 1007,5 15 60 0,0
21.09.2018 08:00:00 17,9 12,4 17,4 16,4 18,4 17,4 16 9 28 15 S 1008,0 30 26 0,0
21.09.2018 07:00:00 16,2 11,6 14,6 16,4 18,6 17,4 19 10 26 14 S 1008,4 31 0 0,0
21.09.2018 06:00:00 15,9 11,6 14,6 16,7 18,7 17,4 19 10 25 13 SSE 1009,1 27 0 0,0
21.09.2018 05:00:00 16,8 11,7 15,4 17,0 18,9 17,4 19 10 23 13 SSE 1009,8 34 0 0,0
21.09.2018 04:00:00 17,0 11,8 15,6 17,1 19,1 17,4 16 9 22 12 SSE 1010,4 32 0 0,0
21.09.2018 03:00:00 18,2 11,5 16,4 17,3 19,3 17,4 12 7 14 8 SSE 1011,1 42 0 0,0
21.09.2018 02:00:00 17,9 11,5 15,0 17,8 19,5 17,4 10 6 13 7 SSE 1011,7 37 0 0,0
21.09.2018 01:00:00 18,0 11,9 15,7 18,3 19,7 17,4 10 6 13 7 S 1012,3 42 0 0,0
21.09.2018 00:00:00 18,4 12,1 16,5 18,9 19,9 17,4 12 6 14 8 S 1012,8 41 0 0,0
20.09.2018 23:00:00 17,6 11,5 15,5 19,7 20,1 17,4 6 4 13 7 S 1013,4 35 0 0,0
20.09.2018 22:00:00 20,5 12,2 18,7 20,5 20,3 17,4 10 5 11 6 SE 1013,5 47 0 0,0
20.09.2018 21:00:00 20,8 12,3 19,3 21,5 20,5 17,4 9 5 11 6 SE 1013,8 44 0 0,0
20.09.2018 20:00:00 21,9 12,6 20,3 22,7 20,5 17,4 7 4 8 5 SSE 1013,8 39 0 0,0
20.09.2018 19:00:00 24,5 12,4 22,3 24,3 20,5 17,4 5 3 13 7 S 1014,0 48 6 0,0
20.09.2018 18:00:00 26,1 11,9 25,8 25,9 20,4 17,4 13 7 24 13 SW 1014,3 47 49 0,0
20.09.2018 17:00:00 27,0 11,8 28,9 26,9 20,1 17,4 16 9 28 15 SW 1014,8 29 59 0,0
20.09.2018 16:00:00 26,8 11,8 30,2 27,3 19,7 17,4 17 9 35 19 SSW 1015,2 24 60 0,0
20.09.2018 15:00:00 25,7 12,1 29,5 27,0 19,3 17,4 19 11 33 18 SW 1015,8 15 58 0,0
20.09.2018 14:00:00 26,2 12,5 31,0 26,0 18,9 17,4 20 11 34 19 SW 1016,3 20 56 0,0
20.09.2018 13:00:00 24,4 12,1 29,3 24,3 18,6 17,4 21 12 30 16 SW 1016,8 15 59 0,0
20.09.2018 12:00:00 23,0 12,0 26,9 22,5 18,3 17,4 18 10 32 17 WSW 1017,3 13 58 0,0
20.09.2018 11:00:00 22,3 12,8 24,3 21,0 18,1 17,4 18 10 26 14 SW 1017,7 17 59 0,0
20.09.2018 10:00:00 20,7 12,9 22,8 18,5 18,1 17,3 16 9 22 12 SW 1017,9 11 60 0,0
20.09.2018 09:00:00 18,6 13,1 19,1 17,1 18,2 17,3 10 5 17 9 SSW 1017,8 24 22 0,0
20.09.2018 08:00:00 17,1 12,6 16,6 16,4 18,3 17,3 9 5 13 7 SSW 1017,7 25 0 0,0
20.09.2018 07:00:00 15,9 12,3 14,4 16,4 18,5 17,3 9 5 12 7 SSW 1017,3 21 0 0,0
20.09.2018 06:00:00 15,6 12,0 13,7 16,7 18,6 17,3 8 5 10 5 SSW 1017,1 25 0 0,0
20.09.2018 05:00:00 15,8 12,4 14,3 17,0 18,8 17,3 8 4 9 5 S 1017,1 24 0 0,0
20.09.2018 04:00:00 16,5 13,3 13,7 17,4 19,0 17,3 6 3 14 8 WSW 1016,7 29 0 0,0
20.09.2018 03:00:00 18,2 12,3 16,6 17,9 19,1 17,3 9 5 16 9 SSW 1016,0 30 0 0,0
20.09.2018 02:00:00 18,1 12,3 16,5 18,2 19,3 17,3 13 7 16 9 S 1016,1 32 0 0,0
20.09.2018 01:00:00 19,1 12,4 17,0 18,7 19,5 17,3 12 6 17 9 S 1016,2 31 0 0,0
20.09.2018 00:00:00 19,7 12,5 17,6 19,1 19,7 17,3 11 6 16 9 SSW 1016,3 40 0 0,0
19.09.2018 23:00:00 20,3 12,8 17,9 19,7 19,9 17,3 8 5 18 10 SSW 1016,2 40 0 0,0
19.09.2018 22:00:00 20,7 12,7 19,0 20,5 20,1 17,3 16 9 20 11 SSE 1016,0 39 0 0,0
19.09.2018 21:00:00 21,6 12,8 19,7 21,4 20,2 17,3 13 7 19 10 SSE 1015,8 41 0 0,0
19.09.2018 20:00:00 22,6 12,9 21,1 22,6 20,3 17,3 13 7 16 9 SSE 1015,8 43 0 0,0
19.09.2018 19:00:00 24,7 12,7 23,1 24,4 20,3 17,3 9 5 21 11 S 1016,0 46 39 0,0
19.09.2018 18:00:00 26,5 13,2 26,9 26,0 20,1 17,3 13 7 27 14 SW 1016,1 46 60 0,0
19.09.2018 17:00:00 26,7 12,9 28,6 27,0 19,8 17,3 21 11 35 19 SW 1016,4 16 60 0,0
19.09.2018 16:00:00 26,8 12,4 29,9 27,5 19,4 17,3 21 11 32 17 SW 1016,6 12 60 0,0
19.09.2018 15:00:00 25,9 11,2 29,7 27,2 19,0 17,3 23 12 31 17 SW 1017,2 15 60 0,0
19.09.2018 14:00:00 25,3 12,5 29,8 26,3 18,5 17,3 20 11 31 17 SW 1017,4 7 60 0,0
19.09.2018 13:00:00 24,3 13,4 29,4 24,6 18,1 17,3 15 8 29 16 SW 1017,7 11 60 0,0
19.09.2018 12:00:00 21,9 13,3 26,9 22,5 17,8 17,3 16 9 27 15 WSW 1018,2 13 60 0,0
19.09.2018 11:00:00 21,1 13,6 24,7 20,4 17,6 17,3 12 7 22 12 WSW 1018,2 22 60 0,0
19.09.2018 10:00:00 20,1 14,0 23,4 18,4 17,6 17,3 14 8 21 11 WSW 1018,1 16 60 0,0
19.09.2018 09:00:00 18,1 13,6 19,7 16,4 17,6 17,2 8 5 12 6 SSW 1017,5 13 60 0,0
19.09.2018 08:00:00 15,4 12,9 15,2 15,5 17,8 17,2 8 4 11 6 SSW 1017,0 20 39 0,0
19.09.2018 07:00:00 14,1 12,0 12,1 15,6 18,0 17,2 8 4 11 6 S 1016,5 19 0 0,0
19.09.2018 06:00:00 14,3 11,8 12,1 15,9 18,2 17,2 6 3 7 4 SSW 1016,1 21 0 0,0
19.09.2018 05:00:00 15,4 11,8 11,6 16,4 18,4 17,2 5 3 9 5 WNW 1016,1 29 0 0,0
19.09.2018 04:00:00 15,8 11,8 12,4 16,9 18,5 17,2 9 5 19 11 NNW 1015,3 33 0 0,0
19.09.2018 03:00:00 17,3 11,0 14,8 17,4 18,7 17,2 14 8 18 10 NNW 1014,6 36 0 0,0
19.09.2018 02:00:00 19,3 10,3 17,0 18,0 18,9 17,2 14 8 41 22 WNW 1013,8 29 0 0,0
19.09.2018 01:00:00 20,2 10,1 18,3 18,2 19,1 17,2 12 6 17 9 S 1013,1 43 0 0,0
19.09.2018 00:00:00 19,9 9,9 17,2 18,7 19,3 17,2 12 6 18 10 S 1013,0 43 0 0,0
18.09.2018 23:00:00 20,4 10,3 17,9 19,3 19,5 17,2 13 7 20 11 S 1013,0 40 0 0,0
18.09.2018 22:00:00 20,8 10,2 18,4 20,1 19,6 17,2 14 8 21 12 SSE 1013,0 37 0 0,0
18.09.2018 21:00:00 21,5 10,2 19,2 21,1 19,8 17,2 15 8 21 12 SSE 1012,9 45 0 0,0
18.09.2018 20:00:00 23,1 10,0 21,1 22,5 19,8 17,3 15 8 19 10 SSE 1012,7 55 5 0,0
18.09.2018 19:00:00 26,5 9,1 24,9 24,4 19,7 17,3 13 7 32 17 S 1012,5 41 60 0,0
18.09.2018 18:00:00 28,6 8,8 28,8 25,9 19,5 17,3 19 11 35 19 S 1012,7 15 60 0,0
18.09.2018 17:00:00 29,2 10,2 30,7 26,8 19,2 17,3 19 11 34 19 S 1012,7 14 60 0,0
18.09.2018 16:00:00 28,9 9,1 31,3 27,1 18,7 17,3 23 13 41 22 S 1013,2 7 60 0,0
18.09.2018 15:00:00 29,2 10,0 32,2 26,7 18,2 17,3 26 14 39 21 SSW 1013,9 5 60 0,0
18.09.2018 14:00:00 28,4 11,3 32,1 25,6 17,7 17,3 26 14 36 20 S 1014,4 6 60 0,0
18.09.2018 13:00:00 27,5 10,5 31,4 24,1 17,3 17,3 22 12 29 16 S 1015,1 6 60 0,0
18.09.2018 12:00:00 25,1 10,8 29,0 21,5 16,9 17,3 18 10 24 13 S 1015,9 15 60 0,0
18.09.2018 11:00:00 22,1 10,2 24,6 19,0 16,7 17,3 12 7 19 10 SSE 1016,3 23 60 0,0
18.09.2018 10:00:00 19,9 9,5 21,8 16,6 16,7 17,3 16 9 21 11 SSE 1016,6 15 60 0,0
18.09.2018 09:00:00 17,0 9,0 17,8 14,6 16,8 17,3 9 5 14 8 SE 1016,8 30 60 0,0
18.09.2018 08:00:00 13,7 8,1 12,9 14,0 16,9 17,3 10 5 16 9 SSE 1017,0 38 5 0,0
18.09.2018 07:00:00 13,4 7,7 12,0 14,1 17,1 17,3 14 8 21 11 SSE 1016,8 38 0 0,0
18.09.2018 06:00:00 13,2 8,0 10,8 14,3 17,3 17,3 10 5 13 7 SSE 1016,8 47 0 0,0
18.09.2018 05:00:00 14,7 8,1 12,0 14,6 17,4 17,3 7 4 16 8 SSE 1016,9 53 0 0,0
18.09.2018 04:00:00 13,9 7,6 11,7 14,9 17,6 17,3 12 6 14 8 SSE 1017,0 66 0 0,0
18.09.2018 03:00:00 13,5 7,7 10,3 15,3 17,9 17,3 5 3 8 4 S 1017,4 68 0 0,0
18.09.2018 02:00:00 15,3 7,7 12,0 15,8 18,1 17,3 7 4 11 6 SSE 1017,6 63 0 0,0
18.09.2018 01:00:00 14,6 7,4 12,3 16,3 18,3 17,3 7 4 9 5 S 1017,8 66 0 0,0
18.09.2018 00:00:00 16,3 7,9 14,1 16,9 18,5 17,3 7 4 8 4 SSE 1017,9 65 0 0,0
17.09.2018 23:00:00 17,0 7,4 13,0 17,6 18,7 17,3 5 3 13 7 S 1018,1 70 0 0,0
17.09.2018 22:00:00 18,1 7,5 15,3 18,4 19,0 17,3 11 6 15 8 SSE 1018,1 66 0 0,0
17.09.2018 21:00:00 18,7 8,0 16,1 19,5 19,1 17,3 11 6 14 8 SSE 1018,3 69 0 0,0
17.09.2018 20:00:00 19,3 7,5 15,9 21,0 19,2 17,3 9 5 10 6 SSE 1018,2 70 0 0,0
17.09.2018 19:00:00 23,4 7,4 19,4 23,0 19,1 17,3 4 2 15 8 SW 1017,9 70 39 0,0
17.09.2018 18:00:00 25,1 6,5 24,8 24,6 18,9 17,3 11 6 19 11 WSW 1017,9 42 54 0,0
17.09.2018 17:00:00 25,7 6,6 27,9 25,3 18,6 17,3 14 7 25 14 SW 1018,0 51 60 0,0
17.09.2018 16:00:00 25,7 6,3 27,8 25,8 18,2 17,3 18 10 25 14 SW 1018,2 38 60 0,0
17.09.2018 15:00:00 24,9 6,7 27,9 25,8 17,7 17,3 18 10 29 16 SW 1018,6 21 60 0,0
17.09.2018 14:00:00 24,8 8,2 29,3 24,7 17,2 17,3 18 10 27 14 SW 1019,1 23 60 0,0
17.09.2018 13:00:00 23,6 8,6 27,6 22,5 16,8 17,3 13 7 24 13 SW 1019,5 47 60 0,0
17.09.2018 12:00:00 22,3 8,5 26,5 20,2 16,5 17,3 16 9 23 12 SW 1019,7 30 60 0,0
17.09.2018 11:00:00 20,5 8,5 22,7 18,4 16,3 17,3 13 7 19 10 SSW 1020,1 42 60 0,0
17.09.2018 10:00:00 18,1 8,9 21,3 16,0 16,2 17,3 8 4 14 7 SSW 1020,3 33 60 0,0
17.09.2018 09:00:00 15,1 9,1 16,3 14,1 16,3 17,3 9 5 15 8 SSW 1020,1 26 60 0,0
17.09.2018 08:00:00 13,0 8,6 12,5 13,3 16,4 17,3 11 6 15 8 S 1020,0 38 28 0,0
17.09.2018 07:00:00 11,9 8,5 9,4 13,4 16,6 17,4 7 4 17 9 SSW 1020,0 20 0 0,0
17.09.2018 06:00:00 11,8 8,4 9,9 13,3 16,8 17,4 9 5 14 7 S 1019,8 37 0 0,0
17.09.2018 05:00:00 11,8 8,1 9,7 13,6 17,0 17,4 9 5 13 7 S 1019,7 41 0 0,0
17.09.2018 04:00:00 11,8 8,3 9,7 14,1 17,2 17,4 8 4 12 7 S 1020,0 40 0 0,0

tt = Température de l'air
td = dewpoint
tt 5cm = Température de l'air 5cm
tt -5cm = Température de l'air -5cm
tt -20cm = Température de l'air -20cm
tt -100cm = Température de l'air -100cm
ff = Vitesse du vent
fx = gusts
dd = Direction du vent
ppp = reduced air pressure
vv = visibility
sd = Ensoleillement
rr = Quantités de précipitations

stations d'obs. à proximité